Time,TemperatureF,DewpointF,PressureIn,WindDirection,WindDirectionDegrees,WindSpeedMPH,WindSpeedGustMPH,Humidity,HourlyPrecipIn,Conditions,Clouds,dailyrainin,SoftwareType,DateUTC
2013-05-28 00:01:00,76.2,65.7,29.95,SSE,158,0.0,0.0,70,0.00,,---,0.00,VWS V14.00,2013-05-28 04:01:00,
2013-05-28 00:06:00,76.1,66.0,29.95,SE,135,6.2,6.2,71,0.00,,---,0.00,VWS V14.00,2013-05-28 04:06:00,
2013-05-28 00:11:00,76.1,66.0,29.95,SE,135,2.9,2.9,71,0.00,,---,0.00,VWS V14.00,2013-05-28 04:11:00,
2013-05-28 00:16:00,76.1,66.0,29.95,South,180,2.4,2.4,71,0.00,,---,0.00,VWS V14.00,2013-05-28 04:16:00,
2013-05-28 00:21:00,75.9,66.2,29.95,NNW,338,2.0,2.0,72,0.00,,---,0.00,VWS V14.00,2013-05-28 04:21:00,
2013-05-28 00:26:00,75.7,66.0,29.95,SE,135,1.7,1.7,72,0.00,,---,0.00,VWS V14.00,2013-05-28 04:26:00,
2013-05-28 00:31:00,75.7,66.0,29.95,NE,45,4.2,4.2,72,0.00,,---,0.00,VWS V14.00,2013-05-28 04:31:00,
2013-05-28 00:36:00,75.7,66.4,29.96,NE,45,0.0,0.0,73,0.00,,---,0.00,VWS V14.00,2013-05-28 04:36:00,
2013-05-28 00:41:00,75.5,66.2,29.96,ESE,112,0.0,0.0,73,0.00,,---,0.00,VWS V14.00,2013-05-28 04:41:00,
2013-05-28 00:46:00,75.5,66.6,29.95,SE,135,2.9,2.9,74,0.00,,---,0.00,VWS V14.00,2013-05-28 04:46:00,
2013-05-28 00:51:00,75.3,66.4,29.95,East,90,2.0,2.0,74,0.00,,---,0.00,VWS V14.00,2013-05-28 04:51:00,
2013-05-28 00:56:00,75.3,66.4,29.95,ENE,68,5.1,5.1,74,0.00,,---,0.00,VWS V14.00,2013-05-28 04:56:00,
2013-05-28 01:01:00,75.3,66.4,29.95,East,90,3.5,3.5,74,0.00,,---,0.00,VWS V14.00,2013-05-28 05:01:00,
2013-05-28 01:06:00,75.0,66.6,29.94,SSE,158,2.4,2.4,75,0.00,,---,0.00,VWS V14.00,2013-05-28 05:06:00,
2013-05-28 01:11:00,75.0,66.6,29.94,SE,135,0.0,0.0,75,0.00,,---,0.00,VWS V14.00,2013-05-28 05:11:00,
2013-05-28 01:16:00,75.0,66.6,29.95,East,90,4.6,4.6,75,0.00,,---,0.00,VWS V14.00,2013-05-28 05:16:00,
2013-05-28 01:21:00,75.0,66.6,29.95,East,90,0.8,0.8,75,0.00,,---,0.00,VWS V14.00,2013-05-28 05:21:00,
2013-05-28 01:26:00,75.0,66.9,29.94,East,90,2.4,2.4,76,0.00,,---,0.00,VWS V14.00,2013-05-28 05:26:00,
2013-05-28 01:31:00,75.0,66.9,29.94,East,90,0.0,0.0,76,0.00,,---,0.00,VWS V14.00,2013-05-28 05:31:00,
2013-05-28 01:36:00,75.0,66.9,29.94,SE,135,1.1,1.1,76,0.00,,---,0.00,VWS V14.00,2013-05-28 05:36:00,
2013-05-28 01:41:00,74.8,67.1,29.94,SSE,158,2.6,2.6,77,0.00,,---,0.00,VWS V14.00,2013-05-28 05:41:00,
2013-05-28 01:46:00,74.8,67.1,29.93,NE,45,0.0,0.0,77,0.00,,---,0.00,VWS V14.00,2013-05-28 05:46:00,
2013-05-28 01:51:00,74.8,67.1,29.94,ENE,68,0.0,0.0,77,0.00,,---,0.00,VWS V14.00,2013-05-28 05:51:00,
2013-05-28 01:56:00,74.6,66.9,29.93,SSE,158,0.0,0.0,77,0.00,,---,0.00,VWS V14.00,2013-05-28 05:56:00,
2013-05-28 02:01:00,74.4,66.7,29.93,SSE,158,0.8,0.8,77,0.00,,---,0.00,VWS V14.00,2013-05-28 06:01:00,
2013-05-28 02:05:00,74.4,67.1,29.92,East,90,1.1,1.1,78,0.00,,---,0.00,VWS V14.00,2013-05-28 06:05:00,
2013-05-28 02:10:00,74.4,67.1,29.92,ENE,68,0.0,0.0,78,0.00,,---,0.00,VWS V14.00,2013-05-28 06:10:00,
2013-05-28 02:15:00,74.4,67.1,29.92,SE,135,1.5,1.5,78,0.00,,---,0.00,VWS V14.00,2013-05-28 06:15:00,
2013-05-28 02:20:00,74.3,67.0,29.92,East,90,3.5,3.5,78,0.00,,---,0.00,VWS V14.00,2013-05-28 06:20:00,
2013-05-28 02:25:00,74.1,67.2,29.92,SSE,158,0.6,0.6,79,0.00,,---,0.00,VWS V14.00,2013-05-28 06:25:00,
2013-05-28 02:30:00,74.3,67.4,29.92,SE,135,0.0,0.0,79,0.00,,---,0.00,VWS V14.00,2013-05-28 06:30:00,
2013-05-28 02:35:00,74.1,67.2,29.92,ENE,68,6.7,6.7,79,0.00,,---,0.00,VWS V14.00,2013-05-28 06:35:00,
2013-05-28 02:40:00,74.1,67.2,29.92,NE,45,3.3,3.3,79,0.00,,---,0.00,VWS V14.00,2013-05-28 06:40:00,
2013-05-28 02:45:00,74.1,67.2,29.92,ESE,112,0.0,0.0,79,0.00,,---,0.00,VWS V14.00,2013-05-28 06:45:00,
2013-05-28 02:50:00,74.1,67.2,29.92,East,90,2.2,2.2,79,0.00,,---,0.00,VWS V14.00,2013-05-28 06:50:00,
2013-05-28 02:55:00,74.1,67.2,29.91,East,90,0.0,0.0,79,0.00,,---,0.00,VWS V14.00,2013-05-28 06:55:00,
2013-05-28 03:00:00,73.9,67.3,29.91,East,90,0.0,0.0,80,0.00,,---,0.00,VWS V14.00,2013-05-28 07:00:00,
2013-05-28 03:05:00,73.9,67.3,29.91,ENE,68,1.1,1.1,80,0.00,,---,0.00,VWS V14.00,2013-05-28 07:05:00,
2013-05-28 03:10:00,73.7,67.2,29.91,ENE,68,4.0,4.0,80,0.00,,---,0.00,VWS V14.00,2013-05-28 07:10:00,
2013-05-28 03:15:00,73.9,67.3,29.90,ENE,68,2.4,2.4,80,0.00,,---,0.00,VWS V14.00,2013-05-28 07:15:00,
2013-05-28 03:20:00,73.7,67.2,29.90,East,90,2.4,2.4,80,0.00,,---,0.00,VWS V14.00,2013-05-28 07:20:00,
2013-05-28 03:25:00,73.5,67.0,29.90,ESE,112,0.0,0.0,80,0.00,,---,0.00,VWS V14.00,2013-05-28 07:25:00,
2013-05-28 03:30:00,73.5,67.3,29.90,SE,135,0.0,0.0,81,0.00,,---,0.00,VWS V14.00,2013-05-28 07:30:00,
2013-05-28 03:35:00,73.5,67.3,29.90,East,90,0.8,0.8,81,0.00,,---,0.00,VWS V14.00,2013-05-28 07:35:00,
2013-05-28 03:40:00,73.5,67.3,29.90,East,90,2.9,2.9,81,0.00,,---,0.00,VWS V14.00,2013-05-28 07:40:00,
2013-05-28 03:45:00,73.5,67.3,29.90,East,90,2.0,2.0,81,0.00,,---,0.00,VWS V14.00,2013-05-28 07:45:00,
2013-05-28 03:50:00,73.4,67.2,29.89,East,90,3.5,3.5,81,0.00,,---,0.00,VWS V14.00,2013-05-28 07:50:00,
2013-05-28 03:55:00,73.2,67.0,29.89,East,90,2.0,2.0,81,0.00,,---,0.00,VWS V14.00,2013-05-28 07:55:00,
2013-05-28 04:00:00,73.2,67.4,29.89,ESE,112,2.9,2.9,82,0.00,,---,0.00,VWS V14.00,2013-05-28 08:00:00,
2013-05-28 04:05:00,73.2,67.4,29.89,East,90,0.0,0.0,82,0.00,,---,0.00,VWS V14.00,2013-05-28 08:05:00,
2013-05-28 04:10:00,73.2,67.4,29.89,East,90,0.0,0.0,82,0.00,,---,0.00,VWS V14.00,2013-05-28 08:10:00,
2013-05-28 04:15:00,73.2,67.4,29.89,East,90,0.6,0.6,82,0.00,,---,0.00,VWS V14.00,2013-05-28 08:15:00,
2013-05-28 04:20:00,73.0,67.2,29.89,ESE,112,0.0,0.0,82,0.00,,---,0.00,VWS V14.00,2013-05-28 08:20:00,
2013-05-28 04:25:00,73.0,67.2,29.89,East,90,3.3,3.3,82,0.00,,---,0.00,VWS V14.00,2013-05-28 08:25:00,
2013-05-28 04:30:00,73.0,67.2,29.89,ESE,112,0.0,0.0,82,0.00,,---,0.00,VWS V14.00,2013-05-28 08:30:00,
2013-05-28 04:35:00,73.0,67.2,29.89,NE,45,5.5,5.5,82,0.00,,---,0.00,VWS V14.00,2013-05-28 08:35:00,
2013-05-28 04:40:00,73.0,67.2,29.88,ESE,112,0.8,0.8,82,0.00,,---,0.00,VWS V14.00,2013-05-28 08:40:00,
2013-05-28 04:45:00,73.0,67.2,29.89,East,90,0.0,0.0,82,0.00,,---,0.00,VWS V14.00,2013-05-28 08:45:00,
2013-05-28 04:50:00,72.8,67.3,29.89,NE,45,5.8,5.8,83,0.00,,---,0.00,VWS V14.00,2013-05-28 08:50:00,
2013-05-28 04:55:00,73.0,67.5,29.88,East,90,0.0,0.0,83,0.00,,---,0.00,VWS V14.00,2013-05-28 08:55:00,
2013-05-28 05:00:00,73.0,67.5,29.89,East,90,0.0,0.0,83,0.00,,---,0.00,VWS V14.00,2013-05-28 09:00:00,
2013-05-28 05:05:00,72.8,67.3,29.89,ENE,68,1.3,1.3,83,0.00,,---,0.00,VWS V14.00,2013-05-28 09:05:00,
2013-05-28 05:10:00,72.6,67.2,29.89,East,90,0.0,0.0,83,0.00,,---,0.00,VWS V14.00,2013-05-28 09:10:00,
2013-05-28 05:15:00,72.6,67.2,29.89,ESE,112,0.6,0.6,83,0.00,,---,0.00,VWS V14.00,2013-05-28 09:15:00,
2013-05-28 05:20:00,72.6,67.2,29.89,ENE,68,4.4,4.4,83,0.00,,---,0.00,VWS V14.00,2013-05-28 09:20:00,
2013-05-28 05:25:00,72.6,67.2,29.89,ENE,68,0.0,0.0,83,0.00,,---,0.00,VWS V14.00,2013-05-28 09:25:00,
2013-05-28 05:30:00,72.6,67.2,29.89,ENE,68,0.0,0.0,83,0.00,,---,0.00,VWS V14.00,2013-05-28 09:30:00,
2013-05-28 05:35:00,72.6,67.2,29.89,East,90,1.5,1.5,83,0.00,,---,0.00,VWS V14.00,2013-05-28 09:35:00,
2013-05-28 05:40:00,72.5,67.1,29.89,ENE,68,0.0,0.0,83,0.00,,---,0.00,VWS V14.00,2013-05-28 09:40:00,
2013-05-28 05:45:00,72.6,67.2,29.89,East,90,0.6,0.6,83,0.00,,---,0.00,VWS V14.00,2013-05-28 09:45:00,
2013-05-28 05:50:00,72.6,67.5,29.89,East,90,4.0,4.0,84,0.00,,---,0.00,VWS V14.00,2013-05-28 09:50:00,
2013-05-28 05:55:00,72.5,67.4,29.90,East,90,1.3,1.3,84,0.00,,---,0.00,VWS V14.00,2013-05-28 09:55:00,
2013-05-28 06:00:00,72.5,67.4,29.90,East,90,1.5,1.5,84,0.00,,---,0.00,VWS V14.00,2013-05-28 10:00:00,
2013-05-28 06:05:00,72.3,67.2,29.90,East,90,1.3,1.3,84,0.00,,---,0.00,VWS V14.00,2013-05-28 10:05:00,
2013-05-28 06:10:00,72.3,67.2,29.90,ENE,68,3.5,3.5,84,0.00,,---,0.00,VWS V14.00,2013-05-28 10:10:00,
2013-05-28 06:15:00,72.5,67.4,29.90,ESE,112,0.8,3.3,84,0.00,,---,0.00,VWS V14.00,2013-05-28 10:15:00,
2013-05-28 06:20:00,72.5,67.4,29.90,ENE,68,2.2,2.2,84,0.00,,---,0.00,VWS V14.00,2013-05-28 10:20:00,
2013-05-28 06:25:00,72.5,67.4,29.90,ENE,68,0.0,0.0,84,0.00,,---,0.00,VWS V14.00,2013-05-28 10:25:00,
2013-05-28 06:30:00,72.5,67.4,29.90,East,90,0.0,0.0,84,0.00,,---,0.00,VWS V14.00,2013-05-28 10:30:00,
2013-05-28 06:35:00,72.5,67.4,29.90,ESE,112,0.0,0.0,84,0.00,,---,0.00,VWS V14.00,2013-05-28 10:35:00,
2013-05-28 06:40:00,72.3,67.2,29.90,East,90,0.0,0.0,84,0.00,,---,0.00,VWS V14.00,2013-05-28 10:40:00,
2013-05-28 06:45:00,72.3,67.2,29.90,East,90,0.0,0.0,84,0.00,,---,0.00,VWS V14.00,2013-05-28 10:45:00,
2013-05-28 06:50:00,72.5,67.4,29.91,East,90,2.0,2.0,84,0.00,,---,0.00,VWS V14.00,2013-05-28 10:50:00,
2013-05-28 06:55:00,72.6,67.5,29.91,East,90,1.5,1.5,84,0.00,,---,0.00,VWS V14.00,2013-05-28 10:55:00,
2013-05-28 07:00:00,72.6,67.5,29.91,ENE,68,2.6,2.6,84,0.00,,---,0.00,VWS V14.00,2013-05-28 11:00:00,
2013-05-28 07:05:00,72.6,67.2,29.91,ENE,68,0.0,0.0,83,0.00,,---,0.00,VWS V14.00,2013-05-28 11:05:00,
2013-05-28 07:10:00,72.8,67.3,29.91,East,90,3.1,3.1,83,0.00,,---,0.00,VWS V14.00,2013-05-28 11:10:00,
2013-05-28 07:15:00,73.0,67.5,29.91,NE,45,3.5,3.5,83,0.00,,---,0.00,VWS V14.00,2013-05-28 11:15:00,
2013-05-28 07:20:00,73.0,67.5,29.91,ENE,68,2.0,2.0,83,0.00,,---,0.00,VWS V14.00,2013-05-28 11:20:00,
2013-05-28 07:25:00,73.2,67.7,29.92,East,90,4.4,4.4,83,0.00,,---,0.00,VWS V14.00,2013-05-28 11:25:00,
2013-05-28 07:30:00,73.5,67.7,29.92,East,90,0.0,0.0,82,0.00,,---,0.00,VWS V14.00,2013-05-28 11:30:00,
2013-05-28 07:35:00,73.9,68.4,29.92,ESE,112,1.7,1.7,83,0.00,,---,0.00,VWS V14.00,2013-05-28 11:35:00,
2013-05-28 07:40:00,74.8,68.9,29.92,East,90,0.0,0.0,82,0.00,,---,0.00,VWS V14.00,2013-05-28 11:40:00,
2013-05-28 07:45:00,75.9,69.7,29.92,East,90,0.0,0.0,81,0.00,,---,0.00,VWS V14.00,2013-05-28 11:45:00,
2013-05-28 07:50:00,76.2,68.8,29.92,East,90,1.5,1.5,78,0.00,,---,0.00,VWS V14.00,2013-05-28 11:50:00,
2013-05-28 07:55:00,76.1,68.8,29.92,East,90,3.3,3.3,78,0.00,,---,0.00,VWS V14.00,2013-05-28 11:55:00,
2013-05-28 08:00:00,75.9,68.6,29.91,ESE,112,0.0,0.0,78,0.00,,---,0.00,VWS V14.00,2013-05-28 12:00:00,
2013-05-28 08:05:00,75.7,68.4,29.91,ENE,68,3.1,3.1,78,0.00,,---,0.00,VWS V14.00,2013-05-28 12:05:00,
2013-05-28 08:10:00,75.7,68.4,29.91,ESE,112,0.0,0.0,78,0.00,,---,0.00,VWS V14.00,2013-05-28 12:10:00,
2013-05-28 08:15:00,75.9,68.6,29.92,East,90,2.4,2.4,78,0.00,,---,0.00,VWS V14.00,2013-05-28 12:15:00,
2013-05-28 08:20:00,76.1,68.8,29.92,SE,135,0.4,0.4,78,0.00,,---,0.00,VWS V14.00,2013-05-28 12:20:00,
2013-05-28 08:25:00,76.2,68.5,29.92,East,90,3.1,3.1,77,0.00,,---,0.00,VWS V14.00,2013-05-28 12:25:00,
2013-05-28 08:30:00,76.4,68.7,29.93,SSE,158,1.7,1.7,77,0.00,,---,0.00,VWS V14.00,2013-05-28 12:30:00,
2013-05-28 08:34:00,76.6,68.9,29.93,East,90,2.4,2.4,77,0.00,,---,0.00,VWS V14.00,2013-05-28 12:34:00,
2013-05-28 08:39:00,76.6,68.9,29.93,ENE,68,2.9,2.9,77,0.00,,---,0.00,VWS V14.00,2013-05-28 12:39:00,
2013-05-28 08:44:00,76.6,68.9,29.92,ESE,112,3.3,3.3,77,0.00,,---,0.00,VWS V14.00,2013-05-28 12:44:00,
2013-05-28 08:49:00,76.8,69.1,29.93,East,90,3.5,3.5,77,0.00,,---,0.00,VWS V14.00,2013-05-28 12:49:00,
2013-05-28 08:54:00,77.0,69.2,29.92,SE,135,5.5,5.5,77,0.00,,---,0.00,VWS V14.00,2013-05-28 12:54:00,
2013-05-28 08:59:00,77.1,69.3,29.93,East,90,2.4,2.4,77,0.00,,---,0.00,VWS V14.00,2013-05-28 12:59:00,
2013-05-28 09:04:00,77.5,69.7,29.92,ENE,68,3.5,3.5,77,0.00,,---,0.00,VWS V14.00,2013-05-28 13:04:00,
2013-05-28 09:09:00,77.7,69.5,29.92,East,90,5.3,5.3,76,0.00,,---,0.00,VWS V14.00,2013-05-28 13:09:00,
2013-05-28 09:14:00,77.5,69.3,29.92,ESE,112,1.3,1.3,76,0.00,,---,0.00,VWS V14.00,2013-05-28 13:14:00,
2013-05-28 09:19:00,77.7,69.5,29.91,ESE,112,1.7,1.7,76,0.00,,---,0.00,VWS V14.00,2013-05-28 13:19:00,
2013-05-28 09:24:00,78.4,70.2,29.92,ESE,112,2.9,2.9,76,0.00,,---,0.00,VWS V14.00,2013-05-28 13:24:00,
2013-05-28 09:29:00,78.6,70.0,29.92,East,90,3.1,3.1,75,0.00,,---,0.00,VWS V14.00,2013-05-28 13:29:00,
2013-05-28 09:34:00,78.8,69.8,29.92,SSW,202,2.6,2.6,74,0.00,,---,0.00,VWS V14.00,2013-05-28 13:34:00,
2013-05-28 09:39:00,78.8,70.2,29.92,ESE,112,2.4,2.4,75,0.00,,---,0.00,VWS V14.00,2013-05-28 13:39:00,
2013-05-28 09:44:00,79.1,70.1,29.92,East,90,6.4,6.4,74,0.00,,---,0.00,VWS V14.00,2013-05-28 13:44:00,
2013-05-28 09:49:00,79.1,70.1,29.92,ENE,68,1.1,1.1,74,0.00,,---,0.00,VWS V14.00,2013-05-28 13:49:00,
2013-05-28 09:54:00,79.3,70.3,29.91,ENE,68,3.5,3.5,74,0.00,,---,0.00,VWS V14.00,2013-05-28 13:54:00,
2013-05-28 09:59:00,79.7,70.7,29.91,ESE,112,2.0,2.0,74,0.00,,---,0.00,VWS V14.00,2013-05-28 13:59:00,
2013-05-28 10:04:00,80.0,70.6,29.91,SSE,158,3.5,3.5,73,0.00,,---,0.00,VWS V14.00,2013-05-28 14:04:00,
2013-05-28 10:09:00,80.4,71.0,29.91,ESE,112,3.8,3.8,73,0.00,,---,0.00,VWS V14.00,2013-05-28 14:09:00,
2013-05-28 10:14:00,80.9,71.0,29.92,East,90,2.4,2.4,72,0.00,,---,0.00,VWS V14.00,2013-05-28 14:14:00,
2013-05-28 10:19:00,81.1,70.8,29.92,ESE,112,4.4,4.4,71,0.00,,---,0.00,VWS V14.00,2013-05-28 14:19:00,
2013-05-28 10:24:00,81.3,70.6,29.92,SE,135,4.2,4.2,70,0.00,,---,0.00,VWS V14.00,2013-05-28 14:24:00,
2013-05-28 10:29:00,81.6,70.9,29.92,ESE,112,2.0,2.0,70,0.00,,---,0.00,VWS V14.00,2013-05-28 14:29:00,
2013-05-28 10:34:00,81.3,70.6,29.92,SE,135,1.5,1.5,70,0.00,,---,0.00,VWS V14.00,2013-05-28 14:34:00,
2013-05-28 10:39:00,81.5,70.8,29.92,ENE,68,2.9,2.9,70,0.00,,---,0.00,VWS V14.00,2013-05-28 14:39:00,
2013-05-28 10:44:00,82.0,70.8,29.92,SSE,158,3.3,3.3,69,0.00,,---,0.00,VWS V14.00,2013-05-28 14:44:00,
2013-05-28 10:49:00,82.4,71.2,29.92,South,180,4.2,4.2,69,0.00,,---,0.00,VWS V14.00,2013-05-28 14:49:00,
2013-05-28 10:54:00,82.7,71.1,29.92,SE,135,2.9,2.9,68,0.00,,---,0.00,VWS V14.00,2013-05-28 14:54:00,
2013-05-28 10:59:00,83.1,71.4,29.92,SSE,158,2.6,2.6,68,0.00,,---,0.00,VWS V14.00,2013-05-28 14:59:00,
2013-05-28 11:04:00,83.4,71.3,29.92,WSW,248,2.9,2.9,67,0.00,,---,0.00,VWS V14.00,2013-05-28 15:04:00,
2013-05-28 11:09:00,84.0,71.4,29.92,SE,135,0.6,0.6,66,0.00,,---,0.00,VWS V14.00,2013-05-28 15:09:00,
2013-05-28 11:14:00,84.3,71.3,29.92,East,90,8.0,8.0,65,0.00,,---,0.00,VWS V14.00,2013-05-28 15:14:00,
2013-05-28 11:19:00,84.3,71.3,29.92,SSE,158,0.0,0.0,65,0.00,,---,0.00,VWS V14.00,2013-05-28 15:19:00,
2013-05-28 11:24:00,84.7,71.6,29.92,SSE,158,3.8,3.8,65,0.00,,---,0.00,VWS V14.00,2013-05-28 15:24:00,
2013-05-28 11:29:00,85.2,71.2,29.92,East,90,4.9,4.9,63,0.00,,---,0.00,VWS V14.00,2013-05-28 15:29:00,
2013-05-28 11:34:00,85.1,71.1,29.91,NNE,22,4.4,4.4,63,0.00,,---,0.00,VWS V14.00,2013-05-28 15:34:00,
2013-05-28 11:39:00,85.2,71.2,29.91,SE,135,0.0,0.0,63,0.00,,---,0.00,VWS V14.00,2013-05-28 15:39:00,
2013-05-28 11:44:00,85.8,71.3,29.92,SE,135,1.7,1.7,62,0.00,,---,0.00,VWS V14.00,2013-05-28 15:44:00,
2013-05-28 11:49:00,86.1,71.6,29.92,ESE,112,2.0,2.0,62,0.00,,---,0.00,VWS V14.00,2013-05-28 15:49:00,
2013-05-28 11:54:00,86.5,71.5,29.91,SSE,158,5.8,5.8,61,0.00,,---,0.00,VWS V14.00,2013-05-28 15:54:00,
2013-05-28 11:59:00,86.7,71.7,29.91,ESE,112,2.9,2.9,61,0.00,,---,0.00,VWS V14.00,2013-05-28 15:59:00,
2013-05-28 12:04:00,87.0,71.9,29.91,SE,135,3.1,3.1,61,0.00,,---,0.00,VWS V14.00,2013-05-28 16:04:00,
2013-05-28 12:09:00,87.4,71.8,29.91,SSE,158,6.9,6.9,60,0.00,,---,0.00,VWS V14.00,2013-05-28 16:09:00,
2013-05-28 12:14:00,87.0,70.9,29.91,NE,45,3.1,3.1,59,0.00,,---,0.00,VWS V14.00,2013-05-28 16:14:00,
2013-05-28 12:19:00,87.0,71.4,29.91,SE,135,1.1,1.1,60,0.00,,---,0.00,VWS V14.00,2013-05-28 16:19:00,
2013-05-28 12:24:00,87.0,71.4,29.91,SSE,158,2.4,2.4,60,0.00,,---,0.00,VWS V14.00,2013-05-28 16:24:00,
2013-05-28 12:29:00,87.4,71.8,29.90,SSE,158,5.3,5.3,60,0.00,,---,0.00,VWS V14.00,2013-05-28 16:29:00,
2013-05-28 12:34:00,87.8,71.7,29.90,ESE,112,1.7,1.7,59,0.00,,---,0.00,VWS V14.00,2013-05-28 16:34:00,
2013-05-28 12:39:00,88.1,71.5,29.90,ENE,68,0.0,0.0,58,0.00,,---,0.00,VWS V14.00,2013-05-28 16:39:00,
2013-05-28 12:44:00,88.1,72.0,29.90,SE,135,5.3,5.3,59,0.00,,---,0.00,VWS V14.00,2013-05-28 16:44:00,
2013-05-28 12:49:00,87.9,71.3,29.90,ESE,112,3.1,3.1,58,0.00,,---,0.00,VWS V14.00,2013-05-28 16:49:00,
2013-05-28 12:54:00,87.9,70.8,29.90,NE,45,6.0,6.0,57,0.00,,---,0.00,VWS V14.00,2013-05-28 16:54:00,
2013-05-28 12:59:00,87.9,70.8,29.90,ENE,68,7.1,7.1,57,0.00,,---,0.00,VWS V14.00,2013-05-28 16:59:00,
2013-05-28 13:04:00,87.8,70.7,29.90,East,90,6.0,6.0,57,0.00,,---,0.00,VWS V14.00,2013-05-28 17:04:00,
2013-05-28 13:09:00,87.6,71.0,29.89,ENE,68,3.5,3.5,58,0.00,,---,0.00,VWS V14.00,2013-05-28 17:09:00,
2013-05-28 13:14:00,88.3,71.7,29.89,SE,135,3.8,3.8,58,0.00,,---,0.00,VWS V14.00,2013-05-28 17:14:00,
2013-05-28 13:19:00,88.8,71.6,29.89,ESE,112,4.0,4.0,57,0.00,,---,0.00,VWS V14.00,2013-05-28 17:19:00,
2013-05-28 13:24:00,89.0,71.3,29.89,SSE,158,0.0,1.3,56,0.00,,---,0.00,VWS V14.00,2013-05-28 17:24:00,
2013-05-28 13:29:00,89.2,71.5,29.89,SE,135,0.0,0.0,56,0.00,,---,0.00,VWS V14.00,2013-05-28 17:29:00,
2013-05-28 13:34:00,89.4,71.7,29.88,East,90,7.1,7.1,56,0.00,,---,0.00,VWS V14.00,2013-05-28 17:34:00,
2013-05-28 13:39:00,89.9,71.6,29.87,SE,135,2.2,2.2,55,0.00,,---,0.00,VWS V14.00,2013-05-28 17:39:00,
2013-05-28 13:44:00,90.5,72.1,29.87,ENE,68,7.3,7.3,55,0.00,,---,0.00,VWS V14.00,2013-05-28 17:44:00,
2013-05-28 13:49:00,90.6,71.7,29.87,ENE,68,11.6,11.6,54,0.00,,---,0.00,VWS V14.00,2013-05-28 17:49:00,
2013-05-28 13:54:00,90.3,71.4,29.87,East,90,8.2,8.2,54,0.00,,---,0.00,VWS V14.00,2013-05-28 17:54:00,
2013-05-28 13:59:00,90.3,71.4,29.87,SE,135,2.9,2.9,54,0.00,,---,0.00,VWS V14.00,2013-05-28 17:59:00,
2013-05-28 14:04:00,90.6,71.1,29.87,East,90,1.5,1.5,53,0.00,,---,0.00,VWS V14.00,2013-05-28 18:04:00,
2013-05-28 14:09:00,91.0,71.5,29.87,East,90,3.5,3.5,53,0.00,,---,0.00,VWS V14.00,2013-05-28 18:09:00,
2013-05-28 14:14:00,91.4,71.9,29.87,SE,135,2.2,2.2,53,0.00,,---,0.00,VWS V14.00,2013-05-28 18:14:00,
2013-05-28 14:19:00,91.7,71.6,29.87,SSE,158,2.9,2.9,52,0.00,,---,0.00,VWS V14.00,2013-05-28 18:19:00,
2013-05-28 14:24:00,92.1,72.0,29.86,SSE,158,2.6,2.6,52,0.00,,---,0.00,VWS V14.00,2013-05-28 18:24:00,
2013-05-28 14:29:00,92.4,71.7,29.87,East,90,5.8,5.8,51,0.00,,---,0.00,VWS V14.00,2013-05-28 18:29:00,
2013-05-28 14:34:00,93.0,71.6,29.87,SE,135,6.0,6.0,50,0.00,,---,0.00,VWS V14.00,2013-05-28 18:34:00,
2013-05-28 14:39:00,92.8,71.4,29.86,ESE,112,4.2,4.2,50,0.00,,---,0.00,VWS V14.00,2013-05-28 18:39:00,
2013-05-28 14:44:00,92.8,71.4,29.87,ESE,112,2.9,2.9,50,0.00,,---,0.00,VWS V14.00,2013-05-28 18:44:00,
2013-05-28 14:49:00,91.7,70.4,29.87,ESE,112,3.8,3.8,50,0.00,,---,0.00,VWS V14.00,2013-05-28 18:49:00,
2013-05-28 14:54:00,91.5,70.8,29.87,ENE,68,7.1,7.1,51,0.00,,---,0.00,VWS V14.00,2013-05-28 18:54:00,
2013-05-28 14:58:00,91.2,69.4,29.87,NE,45,4.9,4.9,49,0.00,,---,0.00,VWS V14.00,2013-05-28 18:58:00,
2013-05-28 15:03:00,89.9,69.4,29.87,East,90,6.2,6.2,51,0.00,,---,0.00,VWS V14.00,2013-05-28 19:03:00,
2013-05-28 15:08:00,89.4,70.0,29.87,NE,45,2.6,2.6,53,0.00,,---,0.00,VWS V14.00,2013-05-28 19:08:00,
2013-05-28 15:13:00,89.4,70.6,29.86,ENE,68,5.8,5.8,54,0.00,,---,0.00,VWS V14.00,2013-05-28 19:13:00,
2013-05-28 15:18:00,89.9,71.0,29.85,NE,45,6.9,6.9,54,0.00,,---,0.00,VWS V14.00,2013-05-28 19:18:00,
2013-05-28 15:23:00,90.3,71.4,29.85,NNW,338,3.1,3.1,54,0.00,,---,0.00,VWS V14.00,2013-05-28 19:23:00,
2013-05-28 15:28:00,91.2,71.1,29.85,East,90,7.8,7.8,52,0.00,,---,0.00,VWS V14.00,2013-05-28 19:28:00,
2013-05-28 15:33:00,91.7,70.4,29.85,ENE,68,8.2,8.2,50,0.00,,---,0.00,VWS V14.00,2013-05-28 19:33:00,
2013-05-28 15:38:00,92.1,71.4,29.84,East,90,3.3,3.3,51,0.00,,---,0.00,VWS V14.00,2013-05-28 19:38:00,
2013-05-28 15:43:00,93.0,71.6,29.84,ESE,112,0.6,0.6,50,0.00,,---,0.00,VWS V14.00,2013-05-28 19:43:00,
2013-05-28 15:48:00,93.3,70.1,29.84,SSE,158,6.9,6.9,47,0.00,,---,0.00,VWS V14.00,2013-05-28 19:48:00,
2013-05-28 15:53:00,93.3,71.3,29.84,NE,45,4.2,4.2,49,0.00,,---,0.00,VWS V14.00,2013-05-28 19:53:00,
2013-05-28 15:58:00,93.2,71.8,29.84,SE,135,6.0,6.0,50,0.00,,---,0.00,VWS V14.00,2013-05-28 19:58:00,
2013-05-28 16:03:00,93.7,71.7,29.85,ESE,112,7.1,7.1,49,0.00,,---,0.00,VWS V14.00,2013-05-28 20:03:00,
2013-05-28 16:08:00,93.0,71.6,29.85,SE,135,6.9,6.9,50,0.00,,---,0.00,VWS V14.00,2013-05-28 20:08:00,
2013-05-28 16:13:00,91.7,71.6,29.85,SSE,158,2.9,2.9,52,0.00,,---,0.00,VWS V14.00,2013-05-28 20:13:00,
2013-05-28 16:18:00,91.0,71.5,29.85,SE,135,0.0,0.0,53,0.00,,---,0.00,VWS V14.00,2013-05-28 20:18:00,
2013-05-28 16:23:00,90.3,71.4,29.85,SE,135,0.0,0.0,54,0.00,,---,0.00,VWS V14.00,2013-05-28 20:23:00,
2013-05-28 16:28:00,89.7,70.9,29.84,South,180,0.0,0.0,54,0.00,,---,0.00,VWS V14.00,2013-05-28 20:28:00,
2013-05-28 16:33:00,90.1,71.2,29.84,South,180,2.2,2.2,54,0.00,,---,0.00,VWS V14.00,2013-05-28 20:33:00,
2013-05-28 16:38:00,90.6,72.2,29.84,SW,225,14.9,14.9,55,0.00,,---,0.00,VWS V14.00,2013-05-28 20:38:00,
2013-05-28 16:43:00,90.8,73.5,29.85,SW,225,8.2,8.2,57,0.00,,---,0.00,VWS V14.00,2013-05-28 20:43:00,
2013-05-28 16:48:00,90.6,73.3,29.85,SSW,202,6.7,6.7,57,0.00,,---,0.00,VWS V14.00,2013-05-28 20:48:00,
2013-05-28 16:53:00,90.3,73.0,29.85,SSE,158,3.1,3.1,57,0.00,,---,0.00,VWS V14.00,2013-05-28 20:53:00,
2013-05-28 16:58:00,90.1,73.3,29.84,SSE,158,6.0,6.0,58,0.00,,---,0.00,VWS V14.00,2013-05-28 20:58:00,
2013-05-28 17:03:00,89.4,72.7,29.84,SSW,202,0.0,0.0,58,0.00,,---,0.00,VWS V14.00,2013-05-28 21:03:00,
2013-05-28 17:08:00,88.5,72.3,29.85,SE,135,0.8,0.8,59,0.00,,---,0.00,VWS V14.00,2013-05-28 21:08:00,
2013-05-28 17:13:00,88.3,72.2,29.85,SW,225,3.8,3.8,59,0.00,,---,0.00,VWS V14.00,2013-05-28 21:13:00,
2013-05-28 17:18:00,87.9,72.3,29.85,NE,45,3.3,3.3,60,0.00,,---,0.00,VWS V14.00,2013-05-28 21:18:00,
2013-05-28 17:23:00,86.9,70.4,29.85,NNE,22,8.5,8.5,58,0.00,,---,0.00,VWS V14.00,2013-05-28 21:23:00,
2013-05-28 17:28:00,85.2,69.8,29.86,ENE,68,7.3,7.3,60,0.00,,---,0.00,VWS V14.00,2013-05-28 21:28:00,
2013-05-28 17:33:00,84.0,70.1,29.87,East,90,11.6,11.6,63,0.00,,---,0.00,VWS V14.00,2013-05-28 21:33:00,
2013-05-28 17:38:00,82.2,68.4,29.87,ESE,112,5.8,5.8,63,0.00,,---,0.00,VWS V14.00,2013-05-28 21:38:00,
2013-05-28 17:43:00,80.7,68.7,29.87,ENE,68,5.5,5.5,67,0.00,,---,0.00,VWS V14.00,2013-05-28 21:43:00,
2013-05-28 17:48:00,78.6,67.2,29.85,East,90,1.1,1.1,68,0.00,,---,0.00,VWS V14.00,2013-05-28 21:48:00,
2013-05-28 17:53:00,77.5,67.8,29.85,ENE,68,3.1,3.1,72,0.00,,---,0.00,VWS V14.00,2013-05-28 21:53:00,
2013-05-28 17:58:00,77.1,68.6,29.85,ESE,112,1.7,1.7,75,0.00,,---,0.00,VWS V14.00,2013-05-28 21:58:00,
2013-05-28 18:03:00,77.1,69.3,29.85,East,90,2.9,2.9,77,0.00,,---,0.00,VWS V14.00,2013-05-28 22:03:00,
2013-05-28 18:08:00,77.1,69.7,29.85,East,90,1.3,1.3,78,0.00,,---,0.00,VWS V14.00,2013-05-28 22:08:00,
2013-05-28 18:13:00,77.1,70.1,29.85,ENE,68,2.6,2.6,79,0.00,,---,0.00,VWS V14.00,2013-05-28 22:13:00,
2013-05-28 18:18:00,77.1,70.5,29.84,ENE,68,0.6,0.6,80,0.00,,---,0.00,VWS V14.00,2013-05-28 22:18:00,
2013-05-28 18:23:00,77.3,70.7,29.85,ESE,112,3.5,3.5,80,0.00,,---,0.00,VWS V14.00,2013-05-28 22:23:00,
2013-05-28 18:28:00,77.5,70.8,29.85,East,90,2.0,2.0,80,0.00,,---,0.00,VWS V14.00,2013-05-28 22:28:00,
2013-05-28 18:33:00,77.7,71.4,29.84,East,90,0.0,0.0,81,0.00,,---,0.00,VWS V14.00,2013-05-28 22:33:00,
2013-05-28 18:38:00,77.9,71.6,29.84,ENE,68,4.2,4.2,81,0.00,,---,0.00,VWS V14.00,2013-05-28 22:38:00,
2013-05-28 18:43:00,78.4,72.1,29.84,ENE,68,6.9,6.9,81,0.00,,---,0.00,VWS V14.00,2013-05-28 22:43:00,
2013-05-28 18:48:00,79.3,72.6,29.84,NE,45,3.3,3.3,80,0.00,,---,0.00,VWS V14.00,2013-05-28 22:48:00,
2013-05-28 18:53:00,80.4,73.3,29.85,ENE,68,3.1,3.1,79,0.00,,---,0.00,VWS V14.00,2013-05-28 22:53:00,
2013-05-28 18:58:00,80.6,72.7,29.86,East,90,2.6,2.6,77,0.00,,---,0.00,VWS V14.00,2013-05-28 22:58:00,
2013-05-28 19:03:00,80.2,71.9,29.86,NE,45,0.0,0.0,76,0.00,,---,0.00,VWS V14.00,2013-05-28 23:03:00,
2013-05-28 19:08:00,79.8,71.9,29.85,SE,135,3.1,3.1,77,0.00,,---,0.00,VWS V14.00,2013-05-28 23:08:00,
2013-05-28 19:13:00,79.8,71.6,29.85,East,90,3.5,3.5,76,0.00,,---,0.00,VWS V14.00,2013-05-28 23:13:00,
2013-05-28 19:18:00,79.8,71.6,29.86,East,90,5.5,5.5,76,0.00,,---,0.00,VWS V14.00,2013-05-28 23:18:00,
2013-05-28 19:23:00,79.8,71.6,29.86,SE,135,6.4,6.4,76,0.00,,---,0.00,VWS V14.00,2013-05-28 23:23:00,
2013-05-28 19:28:00,79.8,71.6,29.86,East,90,6.9,6.9,76,0.00,,---,0.00,VWS V14.00,2013-05-28 23:28:00,
2013-05-28 19:33:00,79.8,71.6,29.87,East,90,0.0,0.0,76,0.00,,---,0.00,VWS V14.00,2013-05-28 23:33:00,
2013-05-28 19:38:00,79.7,71.5,29.87,ENE,68,5.1,5.1,76,0.00,,---,0.00,VWS V14.00,2013-05-28 23:38:00,
2013-05-28 19:43:00,79.3,71.1,29.87,East,90,0.0,0.0,76,0.00,,---,0.00,VWS V14.00,2013-05-28 23:43:00,
2013-05-28 19:48:00,79.3,71.5,29.87,NE,45,3.1,3.1,77,0.00,,---,0.00,VWS V14.00,2013-05-28 23:48:00,
2013-05-28 19:53:00,79.1,71.3,29.87,SE,135,0.2,0.2,77,0.00,,---,0.00,VWS V14.00,2013-05-28 23:53:00,
2013-05-28 19:58:00,79.3,71.8,29.87,East,90,3.1,3.1,78,0.00,,---,0.00,VWS V14.00,2013-05-28 23:58:00,
2013-05-28 20:03:00,79.3,71.8,29.87,East,90,2.2,2.2,78,0.00,,---,0.00,VWS V14.00,2013-05-29 00:03:00,
2013-05-28 20:08:00,79.1,71.7,29.87,ESE,112,1.1,2.4,78,0.00,,---,0.00,VWS V14.00,2013-05-29 00:08:00,
2013-05-28 20:13:00,79.1,71.7,29.87,ESE,112,1.1,1.1,78,0.00,,---,0.00,VWS V14.00,2013-05-29 00:13:00,
2013-05-28 20:18:00,79.1,71.7,29.87,SE,135,3.3,3.3,78,0.00,,---,0.00,VWS V14.00,2013-05-29 00:18:00,
2013-05-28 20:23:00,79.1,71.7,29.87,ESE,112,2.2,2.2,78,0.00,,---,0.00,VWS V14.00,2013-05-29 00:23:00,
2013-05-28 20:28:00,79.1,71.7,29.87,ESE,112,0.0,0.0,78,0.00,,---,0.00,VWS V14.00,2013-05-29 00:28:00,
2013-05-28 20:33:00,78.9,71.5,29.87,ENE,68,7.1,7.1,78,0.00,,---,0.00,VWS V14.00,2013-05-29 00:33:00,
2013-05-28 20:38:00,78.9,71.5,29.88,East,90,4.2,4.2,78,0.00,,---,0.00,VWS V14.00,2013-05-29 00:38:00,
2013-05-28 20:43:00,78.6,70.8,29.88,ENE,68,4.9,4.9,77,0.00,,---,0.00,VWS V14.00,2013-05-29 00:43:00,
2013-05-28 20:48:00,78.4,71.0,29.88,ESE,112,3.3,3.3,78,0.00,,---,0.00,VWS V14.00,2013-05-29 00:48:00,
2013-05-28 20:53:00,78.0,70.6,29.88,North,0,3.5,3.5,78,0.00,,---,0.00,VWS V14.00,2013-05-29 00:53:00,
2013-05-28 20:58:00,77.9,69.7,29.88,ENE,68,4.2,4.2,76,0.00,,---,0.00,VWS V14.00,2013-05-29 00:58:00,
2013-05-28 21:03:00,77.7,69.2,29.88,NE,45,2.0,2.0,75,0.00,,---,0.00,VWS V14.00,2013-05-29 01:03:00,
2013-05-28 21:08:00,77.5,69.3,29.88,East,90,2.2,2.2,76,0.00,,---,0.00,VWS V14.00,2013-05-29 01:08:00,
2013-05-28 21:13:00,77.1,69.0,29.88,SSE,158,3.1,3.1,76,0.00,,---,0.00,VWS V14.00,2013-05-29 01:13:00,
2013-05-28 21:18:00,77.1,69.3,29.88,SE,135,3.3,3.3,77,0.00,,---,0.00,VWS V14.00,2013-05-29 01:18:00,
2013-05-28 21:23:00,77.1,69.3,29.88,East,90,5.1,5.1,77,0.00,,---,0.00,VWS V14.00,2013-05-29 01:23:00,
2013-05-28 21:28:00,77.1,69.3,29.88,SE,135,2.9,2.9,77,0.00,,---,0.00,VWS V14.00,2013-05-29 01:28:00,
2013-05-28 21:33:00,77.0,69.2,29.89,ESE,112,4.4,4.4,77,0.00,,---,0.00,VWS V14.00,2013-05-29 01:33:00,
2013-05-28 21:38:00,76.8,69.1,29.89,SE,135,3.3,3.3,77,0.00,,---,0.00,VWS V14.00,2013-05-29 01:38:00,
2013-05-28 21:43:00,77.0,69.2,29.89,SE,135,1.7,1.7,77,0.00,,---,0.00,VWS V14.00,2013-05-29 01:43:00,
2013-05-28 21:48:00,77.0,69.2,29.89,NE,45,1.7,1.7,77,0.00,,---,0.00,VWS V14.00,2013-05-29 01:48:00,
2013-05-28 21:53:00,76.8,69.1,29.89,East,90,4.0,4.0,77,0.00,,---,0.00,VWS V14.00,2013-05-29 01:53:00,
2013-05-28 21:58:00,76.8,69.1,29.89,East,90,4.2,4.2,77,0.00,,---,0.00,VWS V14.00,2013-05-29 01:58:00,
2013-05-28 22:03:00,76.8,69.1,29.89,East,90,0.0,0.0,77,0.00,,---,0.00,VWS V14.00,2013-05-29 02:03:00,
2013-05-28 22:08:00,76.8,69.1,29.89,NNW,338,0.0,0.0,77,0.00,,---,0.00,VWS V14.00,2013-05-29 02:08:00,
2013-05-28 22:13:00,76.8,69.1,29.89,ESE,112,1.5,1.5,77,0.00,,---,0.00,VWS V14.00,2013-05-29 02:13:00,
2013-05-28 22:18:00,76.8,69.4,29.89,SE,135,1.7,1.7,78,0.00,,---,0.00,VWS V14.00,2013-05-29 02:18:00,
2013-05-28 22:22:00,76.8,69.4,29.89,SE,135,2.6,2.6,78,0.00,,---,0.00,VWS V14.00,2013-05-29 02:22:00,
2013-05-28 22:27:00,76.8,69.8,29.90,SE,135,0.0,0.0,79,0.00,,---,0.00,VWS V14.00,2013-05-29 02:27:00,
2013-05-28 22:32:00,76.6,69.6,29.90,East,90,0.0,0.0,79,0.00,,---,0.00,VWS V14.00,2013-05-29 02:32:00,
2013-05-28 22:37:00,76.6,70.0,29.90,East,90,2.0,2.0,80,0.00,,---,0.00,VWS V14.00,2013-05-29 02:37:00,
2013-05-28 22:42:00,76.6,70.0,29.90,NE,45,4.4,4.4,80,0.00,,---,0.00,VWS V14.00,2013-05-29 02:42:00,
2013-05-28 22:47:00,76.6,70.0,29.90,East,90,4.2,4.2,80,0.00,,---,0.00,VWS V14.00,2013-05-29 02:47:00,
2013-05-28 22:52:00,76.2,69.6,29.91,ESE,112,2.4,2.4,80,0.00,,---,0.00,VWS V14.00,2013-05-29 02:52:00,
2013-05-28 22:57:00,76.2,69.9,29.91,SE,135,2.0,2.0,81,0.00,,---,0.00,VWS V14.00,2013-05-29 02:57:00,
2013-05-28 23:02:00,76.4,69.8,29.91,East,90,0.2,0.2,80,0.00,,---,0.00,VWS V14.00,2013-05-29 03:02:00,
2013-05-28 23:07:00,76.4,69.8,29.90,ESE,112,3.5,3.5,80,0.00,,---,0.00,VWS V14.00,2013-05-29 03:07:00,
2013-05-28 23:12:00,76.2,69.6,29.91,NE,45,5.5,5.5,80,0.00,,---,0.00,VWS V14.00,2013-05-29 03:12:00,
2013-05-28 23:17:00,76.2,69.6,29.90,ESE,112,6.9,6.9,80,0.00,,---,0.00,VWS V14.00,2013-05-29 03:17:00,
2013-05-28 23:22:00,76.2,69.9,29.90,East,90,1.3,1.3,81,0.00,,---,0.00,VWS V14.00,2013-05-29 03:22:00,
2013-05-28 23:27:00,76.2,69.9,29.91,ENE,68,1.1,1.1,81,0.00,,---,0.00,VWS V14.00,2013-05-29 03:27:00,
2013-05-28 23:32:00,76.1,69.8,29.90,SE,135,0.6,0.6,81,0.00,,---,0.00,VWS V14.00,2013-05-29 03:32:00,
2013-05-28 23:37:00,76.1,69.8,29.90,SSE,158,0.0,0.0,81,0.00,,---,0.00,VWS V14.00,2013-05-29 03:37:00,
2013-05-28 23:42:00,75.9,69.7,29.90,ESE,112,0.0,0.0,81,0.00,,---,0.00,VWS V14.00,2013-05-29 03:42:00,
2013-05-28 23:47:00,76.1,69.8,29.90,SE,135,0.0,0.0,81,0.00,,---,0.00,VWS V14.00,2013-05-29 03:47:00,
2013-05-28 23:52:00,75.9,69.7,29.90,SE,135,2.9,2.9,81,0.00,,---,0.00,VWS V14.00,2013-05-29 03:52:00,
2013-05-28 23:57:00,75.9,70.0,29.90,ENE,68,3.1,3.1,82,0.00,,---,0.00,VWS V14.00,2013-05-29 03:57:00,